Stations météo

réclame
Mon MeteoGroup
Oberstdorf, Allemagne (10948): Température de l'air & dewpoint: 12.11.2018 05:00:00 - 18.11.2018 05:00:00 (CET)Oberstdorf, Allemagne (10948): Température de l'air 5cm & Température de l'air -5cm: 12.11.2018 05:00:00 - 18.11.2018 05:00:00 (CET)Oberstdorf, Allemagne (10948): Température de l'air -20cm & Température de l'air -100cm: 12.11.2018 05:00:00 - 18.11.2018 05:00:00 (CET)Oberstdorf, Allemagne (10948): Vitesse du vent & gusts: 12.11.2018 05:00:00 - 18.11.2018 05:00:00 (CET)Oberstdorf, Allemagne (10948): Direction du vent: 12.11.2018 05:00:00 - 18.11.2018 05:00:00 (CET)Oberstdorf, Allemagne (10948): visibility: 12.11.2018 05:00:00 - 18.11.2018 05:00:00 (CET)Oberstdorf, Allemagne (10948): Ensoleillement: 12.11.2018 05:00:00 - 18.11.2018 05:00:00 (CET)Oberstdorf, Allemagne (10948): Quantités de précipitations: 12.11.2018 05:00:00 - 18.11.2018 05:00:00 (CET)
Date & Time tt [°C] td [°C] tt 5cm [°C] tt -5cm [°C] tt -20cm [°C] tt -100cm [°C] ff [km/h] ff [knt] fx [km/h] fx [knt] dd vv [km] sd [min] rr [mm]
18.11.2018 05:00:00 -1,1 -2,7 -1,2 4,3 6,0 9,1 3 2 9 5 N 9 0 0,0
18.11.2018 04:00:00 -1,0 -2,8 -1,2 4,4 6,0 9,1 4 2 11 6 NNW 9 0 0,0
18.11.2018 03:00:00 -1,4 -2,5 -1,3 4,4 6,1 9,1 4 2 9 5 WSW 6 0 0,0
18.11.2018 02:00:00 -1,2 -2,3 -1,3 4,6 6,1 9,1 3 2 6 4 N 8 0 0,0
18.11.2018 01:00:00 -1,5 -2,6 -1,3 4,7 6,2 9,1 2 1 6 4 N 10 0 0,0
18.11.2018 00:00:00 -2,2 -3,1 -2,0 4,8 6,2 9,1 0 0 4 2 N 8 0 0,0
17.11.2018 23:00:00 -3,1 -3,9 -2,8 5,0 6,3 9,2 0 0 6 4 N 9 0 0,0
17.11.2018 22:00:00 -4,9 -6,1 -7,1 5,1 6,3 9,2 2 1 8 4 SSW 6 0 0,0
17.11.2018 21:00:00 -3,5 -3,6 -6,1 5,3 6,3 9,2 3 2 12 6 S 3,3 0 0,0
17.11.2018 20:00:00 -4,2 -5,7 -6,1 5,4 6,3 9,2 5 3 8 4 SSE 7 0 0,0
17.11.2018 19:00:00 -3,6 -5,3 -4,5 5,6 6,2 9,2 5 3 9 5 S 9 0 0,0
17.11.2018 18:00:00 -2,0 -3,4 -3,4 5,7 6,2 9,2 6 4 12 6 S 5 0 0,0
17.11.2018 17:00:00 0,0 -2,1 -2,2 5,7 6,1 9,2 6 4 15 8 S 16 0 0,0
17.11.2018 16:00:00 1,4 -1,4 -0,6 5,5 6,1 9,2 8 4 10 5 SSE 19 17 0,0
17.11.2018 15:00:00 3,2 -1,3 6,6 5,3 6,0 9,2 6 4 11 6 SW 19 60 0,0
17.11.2018 14:00:00 4,3 -2,5 7,1 5,0 6,0 9,2 4 2 11 6 NNW 24 60 0,0
17.11.2018 13:00:00 3,1 -2,8 6,3 4,8 6,0 9,3 6 3 11 6 N 26 58 0,0
17.11.2018 12:00:00 1,7 -4,0 5,1 4,6 6,1 9,3 2 1 9 5 SSE 25 60 0,0
17.11.2018 11:00:00 1,0 -5,1 3,8 4,6 6,1 9,3 2 1 10 5 NE 30 60 0,0
17.11.2018 10:00:00 -1,9 -4,6 1,0 4,6 6,1 9,3 4 2 10 5 NW 24 2 0,0
17.11.2018 09:00:00 -2,3 -4,5 -1,5 4,7 6,2 9,3 3 2 9 5 ESE 18 0 0,0
17.11.2018 08:00:00 -2,2 -4,2 -1,6 4,7 6,2 9,3 3 2 11 6 SSW 18 0 0,0
17.11.2018 07:00:00 -2,0 -3,9 -1,5 4,8 6,3 9,3 5 3 12 6 SE 15 0 0,0
17.11.2018 06:00:00 -1,8 -3,4 -1,4 4,8 6,3 9,3 5 3 9 5 S 14 0 0,0
17.11.2018 05:00:00 -1,9 -3,2 -1,4 4,9 6,3 9,3 8 5 11 6 S 14 0 0,0
17.11.2018 04:00:00 -1,9 -3,2 -1,4 5,0 6,4 9,3 3 2 10 5 SSE 13 0 0,0
17.11.2018 03:00:00 -1,6 -2,9 -1,1 5,0 6,4 9,4 8 5 12 6 SW 16 0 0,0
17.11.2018 02:00:00 -1,3 -2,4 -0,9 5,1 6,4 9,4 5 3 10 6 ENE 12 0 0,0
17.11.2018 01:00:00 -1,3 -2,5 -0,8 5,2 6,4 9,4 5 3 9 5 ESE 12 0 0,0
17.11.2018 00:00:00 -0,8 -2,0 -0,3 5,2 6,4 9,4 4 2 7 4 SW 13 0 0,0
16.11.2018 23:00:00 -0,8 -2,0 -0,4 5,3 6,5 9,4 4 2 7 4 E 14 0 0,0
16.11.2018 22:00:00 -0,6 -1,7 -0,1 5,3 6,5 9,4 6 3 9 5 SW 20 0 0,0
16.11.2018 21:00:00 -0,1 -1,4 0,4 5,4 6,5 9,4 4 2 9 5 S 17 0 0,0
16.11.2018 20:00:00 0,0 -1,3 0,4 5,4 6,5 9,4 8 4 11 6 S 16 0 0,0
16.11.2018 19:00:00 0,3 -0,9 0,7 5,5 6,5 9,4 5 3 13 7 SE 12 0 0,0
16.11.2018 18:00:00 0,4 -0,4 0,8 5,5 6,5 9,4 7 4 12 6 SSE 11 0 0,0
16.11.2018 17:00:00 0,2 -0,5 0,9 5,4 6,5 9,5 5 3 10 5 SSE 10 0 0,0
16.11.2018 16:00:00 0,2 -0,4 1,1 5,4 6,5 9,5 4 2 9 5 S 10 0 0,0
16.11.2018 15:00:00 0,0 -0,6 1,7 5,3 6,5 9,5 5 3 9 5 SW 9 0 0,0
16.11.2018 14:00:00 -0,1 -0,7 1,7 5,2 6,5 9,5 4 2 10 6 N 7 0 0,0
16.11.2018 13:00:00 -0,4 -1,1 1,5 5,1 6,5 9,5 4 2 9 5 NW 16 0 0,0
16.11.2018 12:00:00 -1,0 -1,5 1,0 5,1 6,5 9,5 4 2 9 5 W 2,6 0 0,0
16.11.2018 11:00:00 -1,4 -1,9 0,1 5,1 6,6 9,5 3 2 7 4 SSE 0,5 0 0,0
16.11.2018 10:00:00 -2,2 -2,8 -0,1 5,1 6,6 9,5 3 1 6 3 W 0,3 0 0,0
16.11.2018 09:00:00 -2,8 -3,1 -2,1 5,2 6,7 9,5 3 1 5 3 NW 0,2 0 0,0
16.11.2018 08:00:00 -2,7 -3,0 -1,7 5,3 6,7 9,5 2 1 4 2 WNW 0,2 0 0,0
16.11.2018 07:00:00 -2,7 -3,1 -2,2 5,4 6,7 9,6 0 0 5 3 N 0,1 0 0,0
16.11.2018 06:00:00 -2,2 -2,7 -1,5 5,5 6,8 9,6 0 0 5 3 N 0,2 0 0,0
16.11.2018 05:00:00 -1,8 -2,1 -1,3 5,5 6,8 9,6 2 1 7 4 SW 0,6 0 0,0
16.11.2018 04:00:00 -1,5 -1,7 -0,7 5,6 6,8 9,6 5 3 7 4 SSW 0,3 0 0,0
16.11.2018 03:00:00 -1,4 -1,5 -0,8 5,7 6,8 9,6 4 2 8 4 ESE 0,3 0 0,0
16.11.2018 02:00:00 -1,0 -1,3 -0,3 5,7 6,8 9,6 3 1 6 4 E 0,2 0 0,0
16.11.2018 01:00:00 -0,6 -0,8 -0,1 5,8 6,9 9,6 3 2 6 4 NE 0,8 0 0,0
16.11.2018 00:00:00 -0,1 -0,3 0,4 5,8 6,9 9,6 0 0 8 4 N 0,2 0 0,0
15.11.2018 23:00:00 0,3 0,2 0,7 5,9 6,9 9,6 3 2 8 4 SE 0,1 0 0,0
15.11.2018 22:00:00 0,5 0,2 1,0 5,9 6,9 9,6 5 3 6 4 E 0,3 0 0,0
15.11.2018 21:00:00 0,9 0,5 1,4 5,9 6,8 9,6 3 2 9 5 SE 9 0 0,0
15.11.2018 20:00:00 1,4 1,1 1,8 5,9 6,8 9,7 4 2 8 5 SSE 0,9 0 0,0
15.11.2018 19:00:00 1,6 1,3 2,0 5,9 6,8 9,7 4 2 8 5 N 0,3 0 0,0
15.11.2018 18:00:00 1,8 1,6 2,2 5,9 6,8 9,7 4 2 8 4 NE 0,2 0 0,0
15.11.2018 17:00:00 2,2 1,8 2,7 5,8 6,7 9,7 0 0 10 6 N 1,1 0 0,0
15.11.2018 16:00:00 2,5 1,6 2,0 5,6 6,7 9,7 9 5 11 6 NNE 12 17 0,0
15.11.2018 15:00:00 5,1 1,4 6,8 5,3 6,8 9,7 5 3 15 8 NNE 32 60 0,0
15.11.2018 14:00:00 5,5 1,8 6,3 5,0 6,8 9,7 10 6 14 8 N 45 60 0,0
15.11.2018 13:00:00 6,3 1,1 10,6 4,9 6,9 9,7 5 3 9 5 WNW 55 60 0,0
15.11.2018 12:00:00 5,2 -0,4 8,6 4,9 7,0 9,7 3 1 12 7 NW 50 60 0,0
15.11.2018 11:00:00 1,7 -1,2 5,0 5,0 7,1 9,7 4 2 11 6 NW 49 60 0,0
15.11.2018 10:00:00 0,4 -2,7 2,0 5,2 7,2 9,7 0 0 6 3 N 32 60 0,0
15.11.2018 09:00:00 -3,4 -4,0 -3,6 5,3 7,3 9,7 0 0 4 2 N 42 1 0,0
15.11.2018 08:00:00 -5,1 -6,1 -5,9 5,5 7,4 9,7 3 2 5 3 S 21 0 0,0
15.11.2018 07:00:00 -4,2 -4,7 -6,6 5,6 7,4 9,7 3 2 4 2 WNW 0,2 0 0,0
15.11.2018 06:00:00 -3,7 -4,3 -6,7 5,8 7,5 9,7 3 1 5 3 S 70 0 0,0
15.11.2018 05:00:00 -3,1 -3,4 -5,8 6,0 7,6 9,7 3 2 6 3 S 0,4 0 0,0
15.11.2018 04:00:00 -3,8 -4,5 -6,1 6,2 7,7 9,7 2 1 3 2 SSW 6 0 0,0
15.11.2018 03:00:00 -2,4 -3,0 -4,8 6,4 7,8 9,7 2 1 9 5 NNE 70 0 0,0
15.11.2018 02:00:00 -2,5 -3,1 -4,5 6,6 7,8 9,7 5 3 8 5 SSE 70 0 0,0
15.11.2018 01:00:00 -1,5 -1,7 -4,8 6,8 7,9 9,7 0 0 5 3 N 20 0 0,0
15.11.2018 00:00:00 -1,2 -2,1 -2,9 7,0 7,9 9,7 3 2 9 5 SSE 70 0 0,0
14.11.2018 23:00:00 -1,7 -2,7 -3,0 7,2 8,0 9,7 5 3 6 4 SSE 70 0 0,0
14.11.2018 22:00:00 0,0 -0,8 -2,7 7,5 8,0 9,7 3 2 10 5 S 42 0 0,0
14.11.2018 21:00:00 0,6 -0,8 -1,9 7,7 7,9 9,8 0 0 10 5 N 54 0 0,0
14.11.2018 20:00:00 2,1 1,2 -0,9 7,9 7,9 9,8 4 2 15 8 SE 49 0 0,0
14.11.2018 19:00:00 2,8 1,8 -0,6 8,0 7,8 9,8 6 3 11 6 SSE 69 0 0,0
14.11.2018 18:00:00 3,6 2,0 1,5 8,1 7,7 9,8 8 5 12 6 SE 70 0 0,0
14.11.2018 17:00:00 5,6 3,6 3,3 8,0 7,6 9,8 11 6 14 7 S 70 0 0,0
14.11.2018 16:00:00 6,9 4,3 5,6 7,7 7,5 9,8 9 5 10 5 SSE 70 18 0,0
14.11.2018 15:00:00 10,6 5,9 13,8 7,3 7,5 9,8 6 3 8 4 SW 70 60 0,0
14.11.2018 14:00:00 12,3 5,2 15,8 6,9 7,5 9,8 5 3 10 5 SSW 70 60 0,0
14.11.2018 13:00:00 11,3 5,3 15,4 6,6 7,5 9,8 3 1 7 4 S 70 60 0,0
14.11.2018 12:00:00 9,6 4,8 11,9 6,3 7,5 9,8 4 2 8 4 S 58 60 0,0
14.11.2018 11:00:00 8,0 4,6 10,9 6,2 7,6 9,8 2 1 8 4 SSW 70 58 0,0
14.11.2018 10:00:00 5,3 3,2 8,2 6,3 7,6 9,8 3 2 10 6 ESE 70 60 0,0
14.11.2018 09:00:00 0,3 0,2 0,1 6,4 7,7 9,8 5 3 7 4 SSE 0,2 1 0,0
14.11.2018 08:00:00 -0,3 -0,9 -0,8 6,5 7,7 9,8 2 1 9 5 SSE 3,1 0 0,0
14.11.2018 07:00:00 0,9 0,5 0,0 6,7 7,8 9,8 4 2 6 3 SSE 70 0 0,0
14.11.2018 06:00:00 1,3 1,1 0,7 6,8 7,8 9,8 2 1 7 4 ENE 0,9 0 0,0
14.11.2018 05:00:00 1,4 1,2 1,5 6,9 7,8 9,8 4 2 6 4 S 0,5 0 0,0
14.11.2018 04:00:00 0,9 0,8 -0,3 7,0 7,9 9,8 3 1 4 2 S 0,3 0 0,0
14.11.2018 03:00:00 2,5 2,4 1,0 7,1 7,9 9,8 0 0 4 2 N 0,2 0 0,0
14.11.2018 02:00:00 3,4 3,3 3,0 7,2 7,9 9,8 3 1 5 3 WSW 0,2 0 0,0
14.11.2018 01:00:00 3,6 3,6 3,3 7,3 7,9 9,8 2 1 5 3 ESE 0,7 0 0,0
14.11.2018 00:00:00 4,0 4,0 2,3 7,4 7,9 9,8 5 3 8 4 SSE 0,4 0 0,0
13.11.2018 23:00:00 3,1 2,3 2,7 7,4 7,9 9,9 3 1 5 3 NW 0,1 0 0,0
13.11.2018 22:00:00 4,8 4,5 3,9 7,5 7,8 9,9 3 1 8 4 N 1,0 0 0,0
13.11.2018 21:00:00 5,8 5,6 4,5 7,5 7,8 9,9 3 2 6 4 S 10 0 0,0
13.11.2018 20:00:00 5,8 5,2 5,0 7,5 7,8 9,9 3 2 8 5 ESE 56 0 0,1
13.11.2018 19:00:00 7,4 6,5 6,8 7,5 7,7 9,9 6 3 10 6 SSW 28 0 0,1
13.11.2018 18:00:00 7,9 6,3 7,2 7,5 7,7 9,9 12 6 22 12 SSW 70 0 0,3
13.11.2018 17:00:00 8,2 6,2 7,3 7,4 7,6 9,9 13 7 17 9 SSE 8 0 0,1
13.11.2018 16:00:00 8,8 5,5 8,4 7,3 7,6 9,9 10 6 21 11 SSE 70 0 0,0
13.11.2018 15:00:00 9,3 5,0 8,9 7,2 7,5 9,9 14 7 22 12 WNW 70 0 0,0
13.11.2018 14:00:00 9,4 5,4 9,1 7,0 7,5 9,9 9 5 27 14 W 70 0 0,0
13.11.2018 13:00:00 9,3 6,5 9,3 6,7 7,5 9,9 21 11 46 25 W 38 4 0,0
13.11.2018 12:00:00 11,2 6,7 11,6 6,4 7,5 9,9 24 13 46 25 WNW 53 3 0,0
13.11.2018 11:00:00 14,0 5,7 14,8 6,1 7,6 9,9 3 2 16 9 SSE 70 36 0,0
13.11.2018 10:00:00 11,4 4,9 14,0 6,1 7,6 9,9 13 7 17 9 SSE 70 60 0,0
13.11.2018 09:00:00 6,4 4,4 6,1 6,1 7,7 9,9 6 4 13 7 S 70 2 0,0
13.11.2018 08:00:00 3,8 2,1 0,5 6,3 7,8 9,9 3 2 12 7 E 70 0 0,0
13.11.2018 07:00:00 3,4 2,1 0,9 6,4 7,8 9,9 3 1 21 11 SE 70 0 0,0
13.11.2018 06:00:00 2,3 1,3 -0,3 6,5 7,9 9,9 5 3 10 5 ESE 70 0 0,0
13.11.2018 05:00:00 2,1 1,2 -0,3 6,7 8,0 9,9 4 2 8 4 S 70 0 0,0
13.11.2018 04:00:00 2,2 1,3 -0,6 6,8 8,0 9,9 4 2 10 5 S 70 0 0,0
13.11.2018 03:00:00 3,7 3,6 1,0 7,0 8,1 9,9 4 2 10 5 S 70 0 0,0
13.11.2018 02:00:00 2,8 1,9 0,3 7,2 8,1 9,9 6 3 10 6 S 70 0 0,0
13.11.2018 01:00:00 3,7 3,1 0,4 7,4 8,1 10,0 5 3 8 5 ESE 70 0 0,0
13.11.2018 00:00:00 2,3 1,5 -0,1 7,5 8,1 10,0 4 2 9 5 S 70 0 0,0
12.11.2018 23:00:00 2,4 1,6 1,0 7,7 8,1 10,0 5 3 11 6 SSE 51 0 0,0
12.11.2018 22:00:00 3,4 2,7 1,3 7,9 8,1 10,0 8 4 9 5 SSE 70 0 0,0
12.11.2018 21:00:00 4,6 3,1 1,0 8,0 8,0 10,0 3 2 9 5 ESE 70 0 0,0
12.11.2018 20:00:00 6,3 4,7 2,4 8,1 8,0 10,0 8 5 14 7 SSE 70 0 0,0
12.11.2018 19:00:00 7,5 4,9 4,6 8,2 7,9 10,0 8 5 14 7 SSE 56 0 0,0
12.11.2018 18:00:00 8,5 5,4 5,0 8,2 7,7 10,0 8 4 13 7 SSE 70 0 0,0
12.11.2018 17:00:00 9,8 5,7 7,0 8,0 7,6 10,0 9 5 13 7 SSE 70 0 0,0
12.11.2018 16:00:00 11,6 6,5 9,1 7,7 7,5 10,0 8 5 23 12 S 70 19 0,0
12.11.2018 15:00:00 18,7 5,0 18,6 7,2 7,5 10,0 10 6 20 11 NNW 70 60 0,0
12.11.2018 14:00:00 19,2 6,3 21,5 6,8 7,5 10,0 3 2 11 6 SW 70 58 0,0
12.11.2018 13:00:00 17,6 6,3 19,0 6,3 7,5 10,0 8 4 19 10 NNE 58 60 0,0
12.11.2018 12:00:00 16,8 7,0 18,2 6,0 7,5 10,0 7 4 12 7 NNW 68 60 0,0
12.11.2018 11:00:00 13,7 7,4 15,4 5,9 7,6 10,0 3 2 14 8 NE 70 56 0,0
12.11.2018 10:00:00 9,9 5,6 10,7 5,9 7,7 10,0 2 1 7 4 SSE 70 60 0,0
12.11.2018 09:00:00 1,9 1,2 0,1 6,1 7,8 10,0 5 3 10 5 SSE 45 3 0,0
12.11.2018 08:00:00 0,6 -0,1 -0,7 6,2 7,9 10,0 4 2 11 6 SSE 42 0 0,0
12.11.2018 07:00:00 0,5 0,2 -1,6 6,3 8,0 10,0 5 3 9 5 SSE 70 0 0,0
12.11.2018 06:00:00 0,8 0,5 -1,3 6,5 8,0 10,0 3 2 10 5 SW 31 0 0,0
12.11.2018 05:00:00 0,5 0,0 -1,8 6,7 8,1 10,0 4 2 10 5 SE 49 0 0,0

tt = Température de l'air
td = dewpoint
tt 5cm = Température de l'air 5cm
tt -5cm = Température de l'air -5cm
tt -20cm = Température de l'air -20cm
tt -100cm = Température de l'air -100cm
ff = Vitesse du vent
fx = gusts
dd = Direction du vent
vv = visibility
sd = Ensoleillement
rr = Quantités de précipitations

stations d'obs. à proximité